When you browse on this site, cookies collect data to enhance your experience and personalize the content and advertising you see.
Visit our Privacy Policy to learn more. By continuing to use the site, you agree to this use of cookies and data.
  • In Latvia
  • List of Countries
  • For 7 days
  • Water Temperature
  • Weather Map
  • Weather Widgets
  • user-avatar
    Login

    Hourly Weather Rozwienica

    Today, 26 February, Wednesday

    Time Temperature Precipitation Wind Pressure Humidity
    00:00 +6°C° 0.1 mm 5 mps 728 mmHg 81%
    01:00 +6°C° 0.1 mm 5 mps 728 mmHg 82%
    02:00 +6°C° 0 mm 4 mps 727 mmHg 83%
    03:00 +7°C° 0 mm 3 mps 727 mmHg 84%
    04:00 +7°C° 0 mm 3 mps 727 mmHg 86%
    05:00 +7°C° 0 mm 3 mps 726 mmHg 87%
    06:00 +5°C° 0 mm 3 mps 726 mmHg 88%
    07:00 +5°C° 0 mm 3 mps 726 mmHg 89%
    08:00 +6°C° 0 mm 2 mps 725 mmHg 90%
    09:00 +7°C° 0 mm 3 mps 725 mmHg 85%
    10:00 +8°C° 0 mm 3 mps 725 mmHg 81%
    11:00 +8°C° 0 mm 4 mps 724 mmHg 77%
    12:00 +7°C° 0.7 mm 4 mps 724 mmHg 79%
    13:00 +7°C° 0.7 mm 4 mps 724 mmHg 82%
    14:00 +6°C° 0.7 mm 4 mps 723 mmHg 85%
    15:00 +7°C° 1.5 mm 3 mps 723 mmHg 85%
    16:00 +7°C° 1.5 mm 2 mps 723 mmHg 85%
    17:00 +6°C° 1.5 mm 2 mps 723 mmHg 85%
    18:00 +6°C° 0.4 mm 2 mps 724 mmHg 84%
    19:00 +6°C° 0.4 mm 2 mps 724 mmHg 83%
    20:00 +5°C° 0.4 mm 3 mps 725 mmHg 82%
    21:00 +4°C° 0.1 mm 3 mps 725 mmHg 82%
    22:00 +4°C° 0.1 mm 4 mps 725 mmHg 83%
    23:00 +3°C° 0.1 mm 4 mps 726 mmHg 83%

    Tomorrow, 27 February, Thursday

    Time Temperature Precipitation Wind Pressure Humidity
    00:00 +3°C° 0 mm 4 mps 726 mmHg 82%
    01:00 +2°C° 0 mm 3 mps 726 mmHg 81%
    02:00 +2°C° 0 mm 3 mps 727 mmHg 80%
    03:00 +1°C° 0 mm 3 mps 727 mmHg 80%
    04:00 0°C° 0 mm 4 mps 727 mmHg 79%
    05:00 0°C° 0 mm 4 mps 727 mmHg 78%
    06:00 0°C° 0 mm 5 mps 728 mmHg 81%
    07:00 -1°C° 0 mm 5 mps 728 mmHg 84%
    08:00 -1°C° 0 mm 5 mps 729 mmHg 86%
    09:00 -1°C° 0 mm 6 mps 729 mmHg 82%
    10:00 -1°C° 0 mm 6 mps 729 mmHg 78%
    11:00 +1°C° 0 mm 6 mps 730 mmHg 74%
    12:00 +1°C° 0.1 mm 6 mps 730 mmHg 69%
    13:00 +2°C° 0.1 mm 7 mps 730 mmHg 63%
    14:00 +3°C° 0.1 mm 7 mps 731 mmHg 58%
    15:00 +2°C° 0 mm 6 mps 731 mmHg 58%
    16:00 +2°C° 0 mm 6 mps 731 mmHg 58%
    17:00 +2°C° 0 mm 5 mps 731 mmHg 57%
    18:00 +1°C° 0 mm 4 mps 731 mmHg 63%
    19:00 +1°C° 0 mm 3 mps 731 mmHg 70%
    20:00 +1°C° 0 mm 2 mps 731 mmHg 76%
    21:00 +1°C° 0 mm 2 mps 731 mmHg 76%
    22:00 -1°C° 0 mm 2 mps 731 mmHg 77%
    23:00 -1°C° 0 mm 2 mps 731 mmHg 77%

    Day after tomorrow, 28 February, Friday

    Time Temperature Precipitation Wind Pressure Humidity
    00:00 -1°C° 0 mm 3 mps 730 mmHg 76%
    01:00 0°C° 0 mm 3 mps 730 mmHg 74%
    02:00 0°C° 0 mm 3 mps 729 mmHg 72%
    03:00 0°C° 0 mm 3 mps 729 mmHg 71%
    04:00 -1°C° 0 mm 4 mps 728 mmHg 70%
    05:00 0°C° 0 mm 4 mps 727 mmHg 69%
    06:00 -1°C° 0.5 mm 4 mps 727 mmHg 76%
    07:00 -1°C° 0.5 mm 5 mps 726 mmHg 83%
    08:00 -2°C° 0.5 mm 6 mps 726 mmHg 90%
    09:00 0°C° 0.4 mm 5 mps 726 mmHg 87%
    10:00 +1°C° 0.4 mm 5 mps 726 mmHg 83%
    11:00 +1°C° 0.4 mm 4 mps 726 mmHg 79%
    12:00 +1°C° 0.4 mm 4 mps 727 mmHg 83%
    13:00 +1°C° 0.4 mm 5 mps 727 mmHg 88%
    14:00 0°C° 0.4 mm 5 mps 728 mmHg 92%
    15:00 -1°C° 0.4 mm 6 mps 729 mmHg 93%
    16:00 -2°C° 0.4 mm 7 mps 730 mmHg 95%
    17:00 -2°C° 0.4 mm 8 mps 731 mmHg 96%
    18:00 -2°C° 0.4 mm 7 mps 732 mmHg 96%
    19:00 -2°C° 0.4 mm 7 mps 734 mmHg 96%
    20:00 -2°C° 0.4 mm 7 mps 735 mmHg 96%
    21:00 -3°C° 0.2 mm 6 mps 735 mmHg 95%
    22:00 -3°C° 0.2 mm 6 mps 736 mmHg 94%
    23:00 -3°C° 0.2 mm 6 mps 737 mmHg 94%

    29 February, Saturday

    Time Temperature Precipitation Wind Pressure Humidity
    00:00 -3°C° 0 mm 6 mps 737 mmHg 92%
    01:00 -3°C° 0 mm 6 mps 738 mmHg 91%
    02:00 -2°C° 0 mm 5 mps 738 mmHg 90%
    03:00 -2°C° 0 mm 5 mps 739 mmHg 90%
    04:00 -2°C° 0 mm 5 mps 739 mmHg 89%
    05:00 -1°C° 0 mm 5 mps 739 mmHg 89%
    06:00 -2°C° 0 mm 5 mps 739 mmHg 90%
    07:00 -2°C° 0 mm 5 mps 739 mmHg 91%
    08:00 -2°C° 0 mm 5 mps 739 mmHg 92%
    09:00 -1°C° 0 mm 5 mps 740 mmHg 87%
    10:00 -1°C° 0 mm 5 mps 740 mmHg 83%
    11:00 0°C° 0 mm 5 mps 740 mmHg 78%
    12:00 +1°C° 0 mm 4 mps 740 mmHg 74%
    13:00 +3°C° 0 mm 4 mps 740 mmHg 70%
    14:00 +4°C° 0 mm 3 mps 740 mmHg 66%
    15:00 +4°C° 0 mm 3 mps 739 mmHg 67%
    16:00 +3°C° 0 mm 3 mps 739 mmHg 68%
    17:00 +4°C° 0 mm 2 mps 739 mmHg 69%
    18:00 +2°C° 0 mm 3 mps 739 mmHg 72%
    19:00 +1°C° 0 mm 3 mps 739 mmHg 75%
    20:00 -1°C° 0 mm 4 mps 739 mmHg 78%
    21:00 0°C° 0 mm 4 mps 738 mmHg 77%
    22:00 0°C° 0 mm 5 mps 738 mmHg 75%
    23:00 0°C° 0 mm 5 mps 738 mmHg 73%

    1 March, Sunday

    Time Temperature Precipitation Wind Pressure Humidity
    00:00 0°C° 0 mm 5 mps 737 mmHg 72%
    01:00 0°C° 0 mm 5 mps 737 mmHg 71%
    02:00 0°C° 0 mm 5 mps 737 mmHg 70%
    03:00 0°C° 0 mm 5 mps 736 mmHg 70%
    04:00 0°C° 0 mm 5 mps 736 mmHg 70%
    05:00 -1°C° 0 mm 4 mps 736 mmHg 70%
    06:00 0°C° 0 mm 4 mps 736 mmHg 69%
    07:00 0°C° 0 mm 4 mps 735 mmHg 69%
    08:00 0°C° 0 mm 4 mps 735 mmHg 68%
    09:00 +1°C° 0.1 mm 5 mps 735 mmHg 71%
    10:00 +2°C° 0.1 mm 5 mps 735 mmHg 74%
    11:00 +2°C° 0.1 mm 5 mps 735 mmHg 77%
    12:00 +2°C° 0.2 mm 5 mps 735 mmHg 81%
    13:00 +2°C° 0.2 mm 5 mps 735 mmHg 84%
    14:00 +2°C° 0.2 mm 5 mps 735 mmHg 88%
    15:00 +2°C° 0 mm 5 mps 735 mmHg 86%
    16:00 +3°C° 0 mm 4 mps 735 mmHg 84%
    17:00 +4°C° 0 mm 3 mps 735 mmHg 82%
    18:00 +3°C° 0 mm 3 mps 735 mmHg 85%
    19:00 +3°C° 0 mm 2 mps 734 mmHg 87%
    20:00 +4°C° 0 mm 1 mps 734 mmHg 90%
    21:00 +3°C° 0 mm 2 mps 734 mmHg 90%
    22:00 +3°C° 0 mm 2 mps 734 mmHg 91%
    23:00 +3°C° 0 mm 2 mps 734 mmHg 91%

    2 March, Monday

    Time Temperature Precipitation Wind Pressure Humidity
    00:00 +4°C° 1.3 mm 1 mps 733 mmHg 93%
    01:00 +4°C° 1.3 mm 1 mps 733 mmHg 95%
    02:00 +4°C° 1.3 mm 1 mps 733 mmHg 97%
    03:00 +4°C° 1.7 mm 1 mps 732 mmHg 97%
    04:00 +4°C° 1.7 mm 1 mps 732 mmHg 98%
    05:00 +4°C° 1.7 mm 1 mps 732 mmHg 98%
    06:00 +4°C° 0.1 mm 1 mps 732 mmHg 98%
    07:00 +4°C° 0.1 mm 1 mps 732 mmHg 98%
    08:00 +4°C° 0.1 mm 1 mps 733 mmHg 97%
    09:00 +5°C° 0 mm 1 mps 733 mmHg 93%
    10:00 +6°C° 0 mm 1 mps 733 mmHg 88%
    11:00 +6°C° 0 mm 2 mps 734 mmHg 83%
    12:00 +6°C° 0 mm 2 mps 734 mmHg 77%
    13:00 +7°C° 0 mm 2 mps 734 mmHg 71%
    14:00 +9°C° 0 mm 1 mps 734 mmHg 65%
    15:00 +8°C° 0 mm 2 mps 734 mmHg 66%
    16:00 +8°C° 0 mm 2 mps 734 mmHg 67%
    17:00 +8°C° 0 mm 2 mps 734 mmHg 68%
    18:00 +7°C° 0 mm 2 mps 734 mmHg 73%
    19:00 +6°C° 0 mm 2 mps 734 mmHg 79%
    20:00 +4°C° 0 mm 3 mps 734 mmHg 85%
    21:00 +3°C° 0 mm 3 mps 734 mmHg 85%
    22:00 +3°C° 0 mm 3 mps 734 mmHg 85%
    23:00 +3°C° 0 mm 3 mps 734 mmHg 85%
    Show more